This demonstration page uses our WeatherBlox Daily Observations layout. Learn more.

41.55636, -103.73856

Hourly Observations for June 14, 2020

Temp ( °F °C ) Dew Point ( °F °C ) Humidity (%) Winds ( mph kmh ) Pressure ( in mb ) Visibility ( mi km ) Precip ( " mm )
12:58 am 00:58 Clear 82 28 46 8 28 28 SSE 21 33 29.72 1007 10 16.0934 0 0
1:58 am 01:58 Mostly Cloudy 78 25.5 39 4 25 25 SW 6 9 29.75 1007 10 16.0934 0 0
2:58 am 02:58 Mostly Cloudy 69 20.3 49 9.5 50 50 NE 17 28 29.76 1008 10 16.0934 0 0
3:58 am 03:58 Mostly Cloudy 70 21.3 49 9.6 47 47 ESE 17 28 29.74 1007 10 16.0934 0 0
4:58 am 04:58 Mostly Cloudy 70 20.9 51 10.4 51 51 SE 12 19 29.74 1007 10 16.0934 0 0
5:58 am 05:58 Mostly Cloudy 68 19.8 51 10.4 55 55 S 7 11 29.71 1006 10 16.0934 0 0
6:58 am 06:58 Mostly Cloudy 67 19.2 50 9.9 55 55 Calm 29.72 1007 10 16.0934 0 0
7:58 am 07:58 Mostly Cloudy 70 20.9 46 7.5 42 42 SSW 13 20 29.7 1006 10 16.0934 0 0
8:58 am 08:58 Mostly Cloudy 65 18.5 47 8.4 52 52 SSW 9 15 29.69 1005 10 16.0934 0 0
9:58 am 09:58 Mostly Cloudy 66 19.1 48 8.8 51 51 W 12 19 29.67 1005 10 16.0934 0 0
10:58 am 10:58 Mostly Cloudy 69 20.3 47 8.1 46 46 SSW 10 17 29.66 1004 10 16.0934 0 0
11:58 am 11:58 Partly Cloudy 67 19.3 46 7.9 48 48 SSW 18 30 29.68 1005 10 16.0934 0 0
12:58 pm 12:58 Mostly Sunny 69 20.4 46 7.7 44 44 SSW 21 33 29.7 1006 10 16.0934 0 0
1:58 pm 13:58 Sunny 66 18.7 46 7.6 49 49 SSW 21 33 29.73 1007 10 16.0934 0 0
2:58 pm 14:58 Sunny 79 26.3 43 6.2 28 28 SW 22 35 29.72 1007 10 16.0934 0 0
3:58 pm 15:58 Sunny 83 28.6 42 5.3 23 23 SW 22 35 29.72 1007 10 16.0934 0 0
4:58 pm 16:58 Sunny 87 30.6 29 -1.7 12 12 W 22 35 29.72 1006 10 16.0934 0 0
5:58 pm 17:58 Sunny 88 31.2 28 -2.5 11 11 SW 28 44 29.73 1007 10 16.0934 0 0
6:58 pm 18:58 Sunny 89 31.4 30 -1 12 12 SW 20 31 29.73 1007 10 16.0934 0 0
7:58 pm 19:58 Sunny 91 32.6 29 -1.4 11 11 WSW 18 30 29.71 1006 10 16.0934 0 0
8:58 pm 20:58 Mostly Sunny 89 31.5 31 -0.7 12 12 SW 14 22 29.71 1006 10 16.0934 0 0
9:58 pm 21:58 Mostly Sunny 90 32.1 30 -0.9 12 12 W 7 11 29.71 1006 10 16.0934 0 0
10:58 pm 22:58 Sunny 90 32.3 30 -1 12 12 SSW 10 17 29.7 1006 10 16.0934 0 0
11:58 pm 23:58 Sunny 87 30.4 32 -0.2 14 14 WSW 9 15 29.7 1006 10 16.0934 0 0

Powered by AerisWeather